Regional Weather Roundup
Issued by NWS

Home | Current Version | Previous Version | Graphics & Text | Print | Product List | Glossary On
Versions: 1 2 3 4 5 6 7 8 9 10 11 12 13 14 15 16 17 18 19 20 21 22 23 24 25 26 27 28 29 30 31 32 33 34 35 36 37 38 39 40 41 42 43 44 45 46 47 48 49 50
000
ASUS45 KTFX 302119
RWRMT
MONTANA HOURLY WEATHER ROUNDUP
NATIONAL WEATHER SERVICE GREAT FALLS MT
319 PM MDT TUE SEP 30 2014

NOTE: "FAIR" INDICATES FEW OR NO CLOUDS BELOW 12000 FEET WITH NO
SIGNIFICANT WEATHER AND/OR OBSTRUCTIONS TO VISIBILITY.

* THESE STATIONS ARE NOT UNDER NWS QUALITY CONTROL. THEY DO NOT
   REPORT WEATHER SUCH AS PRECIPITATION OR FOG.

MTZ001>007-043-302200-
WEST OF THE DIVIDE
CITY           SKY/WX    TMP DP  RH WIND       PRES   REMARKS
KALISPELL      CLOUDY    55  45  69 SW14      29.83S
MISSOULA       CLOUDY    55  37  51 W18       29.91S
BUTTE          PTSUNNY   54  34  47 NW17G25   29.85F
MULLAN PASS    FOG       36  36 100 VRB3      29.94R VSB M1/4
* ESSEX        N/A       49  45  86 NW1        N/A
* LINCOLN      N/A       52  41  66 W7G16      N/A
* LOOKOUT PASS N/A       44  39  83 SE7G17     N/A
* POLSON       N/A       54  42  64 SW3G11     N/A
* RONAN APT    CLOUDY    54  41  62 SW8        N/A
* SEELEY LAKE  N/A       51  41  69 W7G16      N/A
* THOMP F APT  PTCLDY    48  43  83 S4         N/A
* YAAK HILL    N/A       54  43  67 S5         N/A
$$

MTZ008-052>055-302200-
SOUTHWEST MONTANA
CITY           SKY/WX    TMP DP  RH WIND       PRES   REMARKS
BOZEMAN        CLOUDY    55  43  64 W6        29.81F
DILLON         LGT RAIN  54  39  57 W12       29.83F
W YELLOWSTONE  N/A       43 N/A N/A SW8       29.88S
* THREE FORKS  CLOUDY    52  30  43 NW6        N/A
* BOULDER HILL N/A       52  28  40 SW6        N/A
* MONIDA PASS  N/A       46  42  86 NW6        N/A
* RAYNOLDS PAS N/A       40  25  55 S4G9       N/A
* WHITEHALL    N/A       54  40  59 W11G19     N/A
* WISE RIVER   N/A       51  34  52 W18        N/A
$$

MTZ009>010-012-014-046-048-049-054-302200-
EAST SLOPES AND CENTRAL MONTANA
CITY           SKY/WX    TMP DP  RH WIND       PRES   REMARKS
CUT BANK       LGT RAIN  50  45  83 NW16      29.75R
GREAT FALLS    LGT RAIN  59  43  56 W15       29.71R
HELENA         CLOUDY    57  37  47 W20G30    29.78F
MALMSTROM AFB  CLOUDY    63  39  41 W16G23    29.72R
* CONRAD       CLOUDY    59  45  60 W21G26     N/A
* DEARBORN     N/A       60  40  48 S11G17     N/A
* EAST GLACIER N/A       50  37  61 W12G19     N/A
* MONARCH      N/A       51  35  54 W14G21     N/A
* PENDROY      N/A       57  37  47 NW15G22    N/A
* ROGERS PASS  N/A       47  38  71 SE16G29    N/A
* SAINT MARY   N/A       49  42  77 SW5G13     N/A
* SWEET GRASS  N/A       50  50 100 VRB23      N/A
* WHITE SULPH  N/A       52  45  77 NW11G18    N/A
$$

MTZ011-013-016-021-035-040-045-047-050-051-302200-
NORTH CENTRAL MONTANA
CITY           SKY/WX    TMP DP  RH WIND       PRES   REMARKS
HAVRE          PTSUNNY   66  46  49 NW22      29.60F
LEWISTOWN      PTSUNNY   63  43  48 W14G24    29.68F
* CHINOOK      PTCLDY    66  46  49 W22G29    29.58R
* FORT BENTON  CLOUDY    57  48  72 W8G21     29.68R
* CHESTER      N/A       60  45  58 NW15G27    N/A
* DENTON       N/A       64  41  43 W24G31     N/A
* GEYSER       N/A       58  38  47 W20G25     N/A
* JUDITH GAP   N/A       55  44  67 N9         N/A
* LOMA         N/A       62  45  54 SW9        N/A
$$

MTZ017>020-022>027-061-062-302200-
NORTHEAST MONTANA
CITY           SKY/WX    TMP DP  RH WIND       PRES   REMARKS
GLASGOW        PTSUNNY   64  52  65 W7        29.55F
GLENDIVE       CLOUDY    57  54  90 N12       29.54F
JORDAN         CLOUDY    66  48  52 W14       29.57F
SIDNEY         CLOUDY    55  54  96 N6        29.55F
WOLF POINT     CLOUDY    61  54  78 W8        29.55F
* BEAVER HILL  N/A       53  53 100 NW11G16    N/A
* CIRCLE       N/A       61  52  72 NW2        N/A
* LINDSAY DVD  N/A       56  53  90 W10        N/A
* NAVAJO       N/A       58  52  81 SW4        N/A
$$

MTZ028>042-056>058-302200-
SOUTHCENTRAL AND SOUTHEAST MONTANA
CITY           SKY/WX    TMP DP  RH WIND       PRES   REMARKS
BAKER          LGT RAIN  54  54 100 NW15G22   29.52F
BILLINGS       CLOUDY    63  43  48 NW16      29.68F
LIVINGSTON     CLOUDY    54  43  67 SW18G28   29.78S
MILES CITY     CLOUDY    64  48  56 W13       29.56F
* LAUREL APT   PTSUNNY   64  39  40 W13G18     N/A
* ROUNDUP APT  CLOUDY    57  45  64 N/A        N/A
* ALZADA       N/A       54  51  90 SW12G17    N/A
* HYSHAM       N/A       57  41  55 W6G11      N/A
* LAME DEER    N/A       54  46  74 W12G20     N/A
* REED POINT   N/A       62  39  43 W29G38     N/A
* ROSCOE HILL  N/A       58  26  29 NW4G12     N/A
$$

REGIONAL REPORTS...DAKOTAS
CITY           SKY/WX    TMP DP  RH WIND       PRES   REMARKS
WILLISTON      LGT RAIN  54  52  93 E7        29.56F
DICKINSON      FOG       52  52 100 NE9       29.48F VSB 1 3/4
BEACH          LGT RAIN  52  52 100 E8        29.54S VSB 3/4
CROSBY         FOG      N/A N/A N/A N/A        N/A   VSB 1 3/4
TIOGA          LGT RAIN  48  48 100 E14       29.59F VSB 3
WATFORD CITY   FOG       52  52 100 E7        29.52F
BISMARCK       FOG       54  52  93 E21G29    29.50F
GRAND FORKS    PTSUNNY   61  45  56 SE17G24   29.72F
FARGO          LGT RAIN  61  46  58 SE17G24   29.71F
BUFFALO SD     CLOUDY    54  52  93 NW14      29.44S
RAPID CITY     PTSUNNY   63  45  52 NW26G33   29.54R
$$

REGIONAL REPORTS...WYOMING/IDAHO/WASHINGTON
CITY           SKY/WX    TMP DP  RH WIND       PRES   REMARKS
GILLETTE       CLOUDY    59  43  56 NW13G24   29.65F
SHERIDAN       CLOUDY    61  39  44 NW30G36   29.66S
CODY           CLOUDY    57  43  60 S5        29.74F
YELLOWSTONE LA CLOUDY    43  36  76 VRB5      29.91F
SALMON         PTSUNNY   54  43  67 SW7       29.89S
MULLAN PASS    FOG       36  36 100 VRB3      29.94S VSB M1/4
SAND POINT     LGT RAIN  54  48  80 CALM      29.88S
SPOKANE        PTSUNNY   64  30  28 W18       29.89F
$$

REGIONAL REPORTS...ALBERTA
CITY           SKY/WX    TMP DP  RH WIND       PRES   REMARKS
CALGARY        CLOUDY    50  37  61 N15G23    29.78R
LETHBRIDGE     CLOUDY    50  46  86 NW16G23   29.76R
MEDICINE HAT   CLOUDY    55  48  77 NW17G24   29.67R
EDMONTON       PTSUNNY   57  37  47 NW18G26   29.70S
WATERTON GATE  N/A       48  45  89 NE10       N/A
CARDSTON       N/A       46  46 100 NW9        N/A
MILK RIVER     N/A       50  46  86 N20G28     N/A
$$

REGIONAL REPORTS...SASKATCHEWAN
CITY           SKY/WX    TMP DP  RH WIND       PRES   REMARKS
SWIFT CURRENT  CLOUDY    59  48  67 NW18      29.54S
MOOSE JAW      PTSUNNY   63  54  73 S6        29.54F
REGINA         LGT RAIN  55  54  96 SE12      29.56F
VAL MARIE      N/A       70  46  42 NW13G18    N/A
ASSINIBOIA     N/A       64  48  56 SW10       N/A
CORONACH       N/A       59  52  78 S6         N/A

$$



USA.gov is the U.S. government's official web portal to all federal, state and local government web resources and services.